www.pogodaiklimat.ru

Погода и климат >> Архив погоды >> Антарктида >> Оркадас


ПОГОДА на Оркадасе

  • Прогноз погоды на Оркадасе
  • Монитор погоды на Оркадасе

АРХИВ ПОГОДЫ на Оркадасе

Время (UTC), дата Ветер
(напр.,м/с)
 
Видим.   Явления Облачность Т
(С)
Тd
(С)
f
(%)
Тe
(С)
Тes
(С)
Комфортность P
(гПа)
Po
(гПа)
Тmin
(С)
Tmax
(С)
R
(мм)
R24
(мм)
S
(см)
09 9.07 Ю 4 500 м в посл. час снег {туман} туман 8/8 180 м
[St Ac As]
-10.6 -11.6 92 -17 -17 1017.6 1016.0
12 9.07 С 2 10 км {снег} 8/6 240 м
[St Ac As]
-11.0 -12.0 92 -16 -16 1017.1 1015.6 -17.2 -10.5 0.0
15 9.07 В 2 10 км 8/5 240 м
[St Ac As Cs]
-9.5 -10.4 93 -14 -14 1016.2 1014.6
18 9.07 З 2 10 км 5/4 240 м
[St Ac As Cs]
-9.0 -10.8 87 -13 -13 1015.7 1014.1
21 9.07 СЗ 5 5000 м дымка 8/4 240 м
[St Ac As Cs]
-8.6 -9.9 90 -16 -16 1014.5 1012.9
00 10.07 З 2 6000 м дымка 8/4 240 м
[St Ac As Cs]
-8.0 -9.7 88 -13 -13 1013.9 1012.2 -11.2 -7.8
03 10.07 Ю 1 6000 м дымка 5/3 210 м
[St Ac As Cs]
-9.0 -10.3 90 -11 -11 1013.2 1011.6
06 10.07 З 2 400 м туман 4/3 210 м
[St Ac As Cs]
-10.0 -10.9 93 -14 -14 1012.4 1010.8
09 10.07 ЮВ 2 400 м ледяные иглы {снег, туман} туман 4/4 210 м
[St Ac As]
-10.4 -11.3 93 -15 -15 1012.1 1010.5
12 10.07 В 2 400 м ледяные иглы {снег, туман} туман 8/4 210 м
[St Ac As Cs]
-15.0 -16.3 90 -20 -20 1012.1 1010.5 -16.0 -8.0 0.0
15 10.07 З 2 5000 м дымка {снег} 4/3 210 м
[St Ac As]
-14.7 -15.9 91 -19 -18 1011.0 1009.4
18 10.07 З 4 6000 м дымка 5/0
[Ac As]
-14.8 -16.0 91 -22 -22 1009.9 1008.2
21 10.07 В 2 10 км 5/0
[Ac As Cs]
-10.2 -11.6 89 -14 -14 1008.5 1006.9
00 11.07 ЮВ 4 5000 м дымка 5/3 210 м
[St Ac As Cs]
-14.6 -15.8 91 -22 -22 1009.3 1007.7 -17.5 -8.0
03 11.07 З 5 2000 м позёмок туман 6/4 210 м
[St Ac As Cs]
-19.8 -21.5 86 -30 -30 1009.7 1008.1
06 11.07 З 4 3000 м позёмок туман 5/4 210 м
[St Ac As Cs]
-22.8 -25.0 82 -32 -32 опасность
обморожения
1010.7 1009.0
09 11.07 В 5 6000 м пыльная буря {метель} туман 4/3 210 м
[St Cs]
-23.2 -26.8 72 -34 -34 опасность
обморожения
1010.4 1008.8
12 11.07 В 11 6000 м дымка 4/1 210 м
[St Cs]
-23.6 -27.3 71 -39 -39 опасность
обморожения
1010.5 1008.9 -23.9 -14.6
15 11.07 В 8 6000 м дымка 4/1 210 м
[St Cs]
-23.6 -27.3 71 -37 -37 опасность
обморожения
1012.8 1011.0
18 11.07 ЮВ 6 6000 м дымка 5/1 210 м
[St Cs]
-24.0 -27.8 71 -36 -36 опасность
обморожения
1015.1 1013.4
21 11.07 СЗ 5 10 км 4/0
[Cs]
-25.0 -29.2 68 -36 -36 опасность
обморожения
1017.7 1016.0
00 12.07 З 5 10 км 4/3 210 м
[St Cs]
-26.0 -28.9 76 -37 -37 опасность
обморожения
1021.5 1019.8 -26.4 -23.0
03 12.07 ЮВ 3 10 км 4/1 210 м
[St Cs]
-26.4 -29.4 76 -35 -35 опасность
обморожения
1023.5 1021.8
06 12.07 Ю 3 10 км ясно -26.8 -29.9 75 -35 -35 опасность
обморожения
1024.3 1022.6
09 12.07 Ю 3 10 км ясно -27.4 -30.7 73 -36 -36 опасность
обморожения
1023.5 1021.8
12 12.07 Ю 5 10 км 10/4 300 м
[St Ac As]
-21.0 -24.0 77 -31 -31 опасность
обморожения
1022.5 1020.8 -28.5 -21.0
15 12.07 Ю 4 10 км 10/4 300 м
[St Ac As]
-18.7 -21.2 81 -27 -27 1020.6 1018.9
18 12.07 СЗ 5 10 км 10/3 300 м
[St Ac As]
-14.3 -16.1 86 -23 -23 1018.1 1016.4
21 12.07 СЗ 5 10 км ясно -12.9 -14.6 87 -21 -21 1015.8 1014.2
00 13.07 С 5 400 м туман ясно -9.5 -10.9 90 -17 -17 1013.8 1012.2 -21.0 -9.5
03 13.07 штиль 0 400 м туман ясно -9.0 -9.9 93 -10 -10 1012.9 1011.3
06 13.07 Ю 2 400 м туман 6/6 180 м
[St]
-12.0 -13.0 92 -17 -17 1012.1 1010.5
09 13.07 С 1 500 м туман 8/8 180 м
[St]
-12.0 -13.0 92 -14 -14 1011.7 1010.1
12 13.07 З 5 500 м туман 10/10 180 м
[St]
-13.0 -13.5 96 -21 -21 1012.1 1010.5 -13.3 -9.0
15 13.07 В 2 800 м туман 6/6 240 м
[St]
-16.0 -16.7 94 -21 -21 1013.3 1011.7
18 13.07 Ю 3 4000 м в посл. час туман туман 3/3 180 м
[St]
-16.8 -17.5 94 -24 -24 1014.0 1012.4
21 13.07 Ю 1 4000 м дымка 3/3 180 м
[St]
-20.8 -20.8 100 -24 -24 1015.6 1014.0
00 14.07 Ю 2 5000 м дымка 8/4 180 м
[St Cs]
-19.2 -20.9 86 -25 -25 1016.3 1014.6 -21.8 -13.0
03 14.07 СЗ 3 800 м туман 8/4 180 м
[St Cs]
-12.5 -13.6 91 -18 -18 1016.4 1014.8
06 14.07 СЗ 1 800 м туман 3/1 180 м
[St Cs]
-19.5 -21.2 86 -23 -23 1016.6 1015.0
09 14.07 Ю 2 800 м туман 3/0
[Cs]
-19.9 -21.7 86 -25 -25 1016.6 1015.0
12 14.07 ЮВ 1 800 м переохл. туман 3/0
[Cs]
-17.0 -18.4 89 -20 -20 1016.5 1014.9 -20.4 -11.0
15 14.07 Ю 2 6000 м в посл. час туман туман ясно -19.2 -20.9 86 -24 -23 1017.1 1015.6
18 14.07 штиль 0 12 км {снег, туман} 4/0
[Cc]
-18.6 -20.2 87 -19 -19 1017.7 1016.1
21 14.07 штиль 0 12 км ясно -18.1 -19.6 88 -18 -18 1019.0 1017.4
00 15.07 штиль 0 10 км ясно -19.8 -22.5 79 -20 -20 1020.1 1018.5 -21.0 -15.0
03 15.07 штиль 0 10 км ясно -21.0 -24.0 77 -21 -21 1021.4 1019.7
06 15.07 штиль 0 800 м туман 3/3 240 м
[St]
-20.8 -23.7 77 -21 -21 1021.9 1020.2
09 15.07 СЗ 2 10 км в посл. час туман ясно -17.0 -19.2 83 -21 -21 1022.1 1020.5
12 15.07 СЗ 2 5000 м дымка {туман} 4/4 180 м
[St]
-15.6 -16.9 90 -20 -20 1022.6 1021.0 -22.4 -14.6
15 15.07 СЗ 3 3000 м дымка ясно -14.4 -15.6 91 -21 -21 1021.9 1020.4
18 15.07 СЗ 3 4000 м дымка 4/0
[Cs]
-14.4 -15.6 91 -21 -21 1020.9 1019.3
21 15.07 СЗ 5 4000 м дымка 4/3 150 м
[St Cs]
-13.6 -14.7 91 -22 -22 1020.7 1019.2
00 16.07 С 5 4000 м дымка 5/3 150 м
[St Cs]
-10.0 -10.9 93 -18 -18 1019.4 1017.8 -16.0 -9.5
03 16.07 С 5 800 м туман 5/0
[Cs]
-9.9 -10.4 96 -18 -18 1018.1 1016.5

 

Местоположение метеостанции Оркадас (Антарктида): широта -60.73 долгота -44.73 высота над уровнем моря 8 м.

В архиве по умолчанию представлена погода на Оркадасе за последнюю неделю. Архивные данные за месяц целиком и за предыдущие месяцы, начиная с января 2011 года, Вы можете получить, выбрав интересующий диапазон дат из раскрывающегося списка и нажав кнопку "Ввод!".


*Определитесь, кто Вы:
робот инопланетянин человек

Внимание! Время в таблицах - всемирное. Для получения местного времени необходимо прибавить поправку, которая равна 0 ч.

Смотрите также архив погоды в соседних городах и на ближайших метеорологических станциях:

Погода на Эсперансе (Антарктида) (703 км)
Погода на Марамбио (Антарктида) (727 км)
Погода на Бернардо О`Хиггинс (Антарктида) (743 км)
Погода на Carlini Base (Антарктида) (755 км)
Погода на King Sejong (Антарктида) (761 км)
Погода на Dinamet-Уругвай (Антарктида) (765 км)
Погода на Беллинсгаузене (Антарктида) (770 км)
Погода на Чанчэн (Антарктида) (772 км)
Погода на Frei Chi-Base (Антарктида) (773 км)
Погода на Captain Arturo Prat Base (Антарктида) (813 км)

Пояснения к столбцам:

Ветер - указаны скорость ветра в м/с - средняя за 10 мин, порывы в срок и между сроками (в фигурных скобках) и направление, откуда дует ветер: С - северный, СВ - северо-восточный, В - восточный, ЮВ - юго-восточный, Ю - южный, ЮЗ - юго-западный, З - западный, СЗ - северо-западный.
Видимость - горизонтальная дальность видимости в метрах или километрах. При видимости от 1 до 10 км при отсутствии осадков обычно наблюдается дымка, при ухудшении видимости до 1 км и менее - туман. В сухую погоду видимость может ухудшаться дымом, пылью или мглою.
Явления - указаны атмосферные явления, наблюдавшиеся в срок или в последний час перед сроком; фигурными скобками обозначены явления, наблюдавшиеся между сроками (за 1-3 часа до срока); квадратными скобками обозначены град или гололедные отложения с указанием их диаметра в мм.
Облачность - указаны через наклонную черту общая и нижняя облачность в баллах и высота нижней границы облаков в метрах; квадратными скобками обозначены формы облаков: Ci - перистые, Cs - перисто-слоистые, Cc - перисто-кучевые, Ac - высококучевые, As - высокослоистые, Sc - слоисто-кучевые, Ns - слоисто-дождевые, Cu - кучевые, Cb - кучево-дождевые. Подробнее классификацию облаков см. в Атласе облаков (PDF).
T - Температура воздуха - температура, измеренная на высоте 2 м над землей.
Td - Температура точки росы - температура, при понижении до которой содержащийся в воздухе водяной пар достигнет насыщения.
f - Относительная влажность воздуха - влажноcть воздуха, измеренная на высоте 2 м над землей.
Te - Эффективная температура - температура, которую ощущает одетый по сезону человек в тени. Характеристика душности погоды. При расчете учитывается влияние влажности воздуха и скорости ветра на теплоощущения человека.
Tes - Эффективная температура на солнце - температура, которую ощущает человек, с поправкой на солнечный нагрев. Характеристика знойности погоды. Зависит от высоты солнца над горизонтом, облачности и скорости ветра. Ночью, в пасмурную погоду, а также при ветре 12 м/с и более поправка равна нулю.
P - Атмосферное давление - приведенное к уровню моря атмосферное давление.
Po - Атмосферное давление - измеренное на уровне метеостанции атмосферное давление.
Tmin - Минимальная температура - минимум температуры воздуха на высоте 2 м над землей.
Tmax - Максимальная температура - максимум температуры воздуха на высоте 2 м над землей.
R - Количество осадков - Количество выпавших осадков за период времени, мм. При наведении курсора мыши на число - период времени, за который выпало указанное количество осадков.
R24 - Количество осадков - Количество выпавших осадков за 24 часа, мм.
S - Снежный покров - Высота снежного покрова, см. При наведении курсора мыши на число - состояние снежного покрова и степень покрытия местности в баллах.